Regional Weather Roundup
Issued by NWS

Home | Current Version | Previous Version | Text Only | Print | Product List | Glossary On
Versions: 1 2 3 4 5 6 7 8 9 10 11 12 13 14 15 16 17 18 19 20 21 22 23 24 25 26 27 28 29 30 31 32 33 34 35 36 37 38 39 40 41 42 43 44 45 46 47 48 49 50
000
ASUS43 KLMK 260710
RWRKY
KENTUCKY REGIONAL WEATHER ROUNDUP
NATIONAL WEATHER SERVICE LOUISVILLE KY
300 AM EDT TUE MAY 26 2015

NOTE "FAIR" INDICATES FEW OR NO CLOUDS BELOW 12,000 FEET
WITH NO SIGNIFICANT WEATHER AND/OR OBSTRUCTIONS TO VISIBILITY.

KYZ001>023-026-027-061>063-070>075-260800-
WESTERN AND SOUTH CENTRAL KENTUCKY

CITY           SKY/WX    TMP DP  RH WIND       PRES   REMARKS
PADUCAH        CLOUDY    71  67  87 S9        30.00R
HENDERSON      CLOUDY    68  64  88 S9        30.01F
OWENSBORO      CLOUDY    69  67  93 S9        30.05F
HOPKINSVILLE   CLOUDY    68  66  93 S13       30.05S
BOWLING GREEN  CLOUDY    66  63  90 SE5       30.09F
GLASGOW        PTCLDY    66  65  94 S3        30.11F
$$

KYZ024-025-028>034-038-045-046-053-260800-
NORTH CENTRAL KENTUCKY

CITY           SKY/WX    TMP DP  RH WIND       PRES   REMARKS
LOUISVILLE/SDF MOCLDY    67  64  90 SE6       30.09F
LOUISVILLE/LOU PTCLDY    67  64  90 S3        30.10F
FORT KNOX      PTCLDY    65  63  94 SE5       30.08F
$$

KYZ035>037-039>044-047>052-055>060-089>105-260800-
NORTHEAST KENTUCKY

CITY           SKY/WX    TMP DP  RH WIND       PRES   REMARKS
LEXINGTON      PTCLDY    65  63  93 SE6       30.13F
COVINGTON      PTCLDY    67  63  87 SW6       30.11S
FRANKFORT      CLEAR     66  63  90 S6        30.12S
$$

KYZ054-064>069-076>088-106>120-260800-
SOUTHEAST KENTUCKY

CITY           SKY/WX    TMP DP  RH WIND       PRES   REMARKS
JACKSON        LGT RAIN  68  64  87 CALM      30.19S
LONDON         CLOUDY    69  62  78 E3        30.17F
SOMERSET       CLOUDY    66  64  94 CALM      30.16F
MIDDLESBORO    CLOUDY    68  65  92 CALM      30.20S
MONTICELLO     PTSUNNY   69  65  87 CALM      30.17F
$$



USA.gov is the U.S. government's official web portal to all federal, state and local government web resources and services.